Weather History for KIKK - March, 2014

Change the Weather History Date:

Tuesday, March 18, 2014

  Actual Average Record
Temperature  
Mean Temperature 38 °F -  
Max Temperature 50 °F - - ()
Min Temperature 27 °F - - ()
Degree Days  
Heating Degree Days 26    
Moisture  
Dew Point 32 °F    
Average Humidity 78    
Maximum Humidity 91    
Minimum Humidity 60    
Precipitation  
Precipitation 0.00 in - - ()
Sea Level Pressure  
Sea Level Pressure 29.82 in    
Wind  
Wind Speed 8 mph (SE)    
Max Wind Speed 20 mph    
Max Gust Speed 26 mph    
Visibility 10 miles    
Events      
T = Trace of Precipitation, MM = Missing Value Source: NWS Daily Summary

Daily Weather History Graph

Daily Weather History Graph

Search for Another Location

Airport or City:

Trip Planner

Search our weather history database for the weather conditions in past years. The results will help you decide how hot, cold, wet, or windy it might be!

Date:

Astronomy

Mar. 18, 2014 Rise Set
Actual Time 6:58 AM CDT 7:01 PM CDT
Civil Twilight 6:30 AM CDT 7:28 PM CDT
Nautical Twilight 5:58 AM CDT 8:00 PM CDT
Astronomical Twilight 5:26 AM CDT 8:33 PM CDT
Moon 9:19 PM CDT (3/18) 7:46 AM CDT (3/18)
Length of Visible Light 12h 58m
Length of Day
12h 03m
Waning Gibbous, 96% of the Moon is Illuminated
Mar 18
Waning Gibbous
Mar 23
Last Quarter
Mar 30
New
Apr 7
First Quarter
Apr 15
Full

Hourly Weather History & Observations

Time (CDT) Temp. Windchill Dew Point Humidity Pressure Visibility Wind Dir Wind Speed Gust Speed Precip Events Conditions
12:15 AM 29.8 °F 26.3 °F 25.5 °F 84% 29.86 in 10.0 mi ESE 3.5 mph - N/A   Clear
12:35 AM 29.3 °F 25.6 °F 25.5 °F 86% 29.86 in 10.0 mi ESE 3.5 mph - N/A   Clear
12:55 AM 28.4 °F 24.6 °F 25.3 °F 88% 29.87 in 10.0 mi East 3.5 mph - N/A   Clear
1:15 AM 28.9 °F 25.2 °F 26.1 °F 89% 29.87 in 10.0 mi East 3.5 mph - N/A   Clear
1:35 AM 27.7 °F 22.4 °F 25.3 °F 91% 29.87 in 10.0 mi ESE 4.6 mph - N/A   Clear
1:55 AM 28.4 °F 23.3 °F 25.5 °F 89% 29.87 in 10.0 mi ESE 4.6 mph - N/A   Clear
2:15 AM 27.1 °F 20.7 °F 24.4 °F 90% 29.87 in 10.0 mi ESE 5.8 mph - N/A   Clear
2:35 AM 28.2 °F 22.0 °F 25.3 °F 89% 29.87 in 10.0 mi ESE 5.8 mph - N/A   Clear
2:55 AM 28.9 °F 21.9 °F 25.9 °F 88% 29.87 in 10.0 mi ESE 6.9 mph - N/A   Clear
3:15 AM 29.1 °F 22.1 °F 26.4 °F 90% 29.86 in 10.0 mi ESE 6.9 mph - N/A   Clear
3:35 AM 29.1 °F 23.0 °F 26.1 °F 88% 29.85 in 10.0 mi ESE 5.8 mph - N/A   Clear
3:55 AM 29.3 °F 23.2 °F 26.1 °F 88% 29.85 in 10.0 mi SE 5.8 mph - N/A   Clear
4:15 AM 29.8 °F 23.0 °F 26.2 °F 86% 29.85 in 10.0 mi ESE 6.9 mph - N/A   Clear
4:35 AM 29.7 °F 22.8 °F 26.1 °F 86% 29.84 in 10.0 mi SE 6.9 mph - N/A   Clear
4:55 AM 29.7 °F 22.8 °F 26.1 °F 86% 29.85 in 10.0 mi SE 6.9 mph - N/A   Clear
5:15 AM 29.7 °F 22.8 °F 25.9 °F 86% 29.85 in 10.0 mi ESE 6.9 mph - N/A   Clear
5:35 AM 29.3 °F 21.5 °F 26.1 °F 88% 29.85 in 10.0 mi SE 8.1 mph - N/A   Clear
5:55 AM 29.3 °F 24.3 °F 26.1 °F 88% 29.86 in 10.0 mi ESE 4.6 mph - N/A   Clear
6:15 AM 29.3 °F 23.2 °F 26.2 °F 88% 29.86 in 7.0 mi ESE 5.8 mph - N/A   Clear
6:35 AM 29.3 °F 22.3 °F 26.2 °F 88% 29.86 in 7.0 mi ESE 6.9 mph - N/A   Clear
6:55 AM 29.8 °F 23.0 °F 26.2 °F 86% 29.87 in 7.0 mi SE 6.9 mph - N/A   Clear
7:15 AM 30.2 °F 23.4 °F 26.2 °F 85% 29.87 in 7.0 mi SE 6.9 mph - N/A   Clear
7:35 AM 30.7 °F 22.6 °F 26.6 °F 85% 29.86 in 7.0 mi ESE 9.2 mph - N/A   Clear
7:55 AM 31.6 °F 23.1 °F 27.3 °F 84% 29.86 in 7.0 mi SE 10.4 mph - N/A   Clear
8:15 AM 32.0 °F 24.8 °F 27.3 °F 83% 29.87 in 10.0 mi SE 8.1 mph - N/A   Clear
8:35 AM 32.9 °F 25.3 °F 28.4 °F 84% 29.87 in 10.0 mi ESE 9.2 mph - N/A   Clear
8:55 AM 34.2 °F 26.2 °F 29.1 °F 82% 29.87 in 10.0 mi ESE 10.4 mph - N/A   Clear
9:15 AM 35.2 °F 28.8 °F 29.5 °F 80% 29.88 in 10.0 mi SE 8.1 mph - N/A   Clear
9:35 AM 36.7 °F 29.9 °F 30.4 °F 78% 29.89 in 10.0 mi SE 9.2 mph - N/A   Clear
9:55 AM 37.6 °F 31.0 °F 31.1 °F 77% 29.88 in 10.0 mi SE 9.2 mph - N/A   Clear
10:15 AM 39.4 °F 32.7 °F 31.8 °F 74% 29.89 in 10.0 mi SE 10.4 mph - N/A   Clear
10:35 AM 40.3 °F 33.4 °F 32.0 °F 72% 29.89 in 10.0 mi SE 11.5 mph - N/A   Clear
10:55 AM 40.6 °F 34.8 °F 32.5 °F 73% 29.89 in 10.0 mi SE 9.2 mph - N/A   Clear
11:15 AM 42.1 °F 35.2 °F 33.3 °F 71% 29.89 in 10.0 mi SE 12.7 mph 16.1 mph N/A   Clear
11:35 AM 43.3 °F 36.8 °F 33.6 °F 69% 29.89 in 10.0 mi SE 12.7 mph - N/A   Clear
11:55 AM 44.8 °F 39.4 °F 34.3 °F 67% 29.89 in 10.0 mi SSE 10.4 mph - N/A   Clear
12:15 PM 45.9 °F 40.0 °F 35.1 °F 66% 29.89 in 10.0 mi SE 12.7 mph - N/A   Clear
12:35 PM 44.4 °F 38.2 °F 34.7 °F 69% 29.89 in 10.0 mi SE 12.7 mph 17.3 mph N/A   Clear
12:55 PM 46.2 °F 40.1 °F 34.5 °F 64% 29.88 in 10.0 mi SE 13.8 mph - N/A   Clear
1:15 PM 46.6 °F - 34.5 °F 63% 29.87 in 10.0 mi SE 16.1 mph 23.0 mph N/A   Clear
1:35 PM 47.8 °F - 36.0 °F 63% 29.85 in 10.0 mi SE 18.4 mph 23.0 mph N/A   Clear
1:55 PM 49.1 °F - 36.5 °F 62% 29.84 in 10.0 mi ESE 15.0 mph 21.9 mph N/A   Clear
2:15 PM 48.0 °F - 36.1 °F 63% 29.84 in 10.0 mi SE 13.8 mph - N/A   Clear
2:35 PM 48.4 °F - 36.5 °F 64% 29.83 in 10.0 mi SE 12.7 mph 21.9 mph N/A   Clear
2:55 PM 50.0 °F - 37.2 °F 62% 29.82 in 10.0 mi SE 18.4 mph 23.0 mph N/A   Clear
3:15 PM 50.2 °F - 36.7 °F 60% 29.82 in 10.0 mi SE 16.1 mph 24.2 mph N/A   Clear
3:35 PM 50.2 °F - 37.4 °F 62% 29.80 in 10.0 mi ESE 18.4 mph 23.0 mph N/A   Clear
3:55 PM 50.5 °F - 37.4 °F 61% 29.79 in 10.0 mi SE 15.0 mph 23.0 mph N/A   Clear
4:15 PM 50.5 °F - 37.6 °F 61% 29.79 in 10.0 mi SE 18.4 mph 25.3 mph N/A   Clear
4:35 PM 49.5 °F - 36.5 °F 61% 29.77 in 10.0 mi ESE 17.3 mph 24.2 mph N/A   Clear
4:55 PM 48.2 °F - 36.7 °F 64% 29.76 in 10.0 mi SE 16.1 mph 25.3 mph N/A   Clear
5:15 PM 48.2 °F - 38.1 °F 68% 29.74 in 10.0 mi ESE 16.1 mph 19.6 mph N/A   Clear
5:35 PM 48.9 °F - 36.7 °F 63% 29.72 in 10.0 mi ESE 18.4 mph 26.5 mph N/A   Clear
5:55 PM 47.5 °F - 37.8 °F 69% 29.71 in 10.0 mi ESE 19.6 mph 23.0 mph N/A   Clear
6:15 PM 46.6 °F - 37.6 °F 71% 29.69 in 10.0 mi ESE 17.3 mph - N/A   Clear
6:35 PM 45.5 °F 38.3 °F 37.8 °F 74% 29.67 in 10.0 mi ESE 17.3 mph - N/A   Clear
6:55 PM 45.0 °F 37.4 °F 37.4 °F 75% 29.66 in 10.0 mi East 18.4 mph - N/A   Clear
7:15 PM 44.8 °F 41.0 °F 37.4 °F 75% 29.70 in 10.0 mi SE 6.9 mph 10.4 mph N/A   Clear
7:35 PM 43.7 °F 39.1 °F 37.4 °F 78% 29.70 in 10.0 mi ESE 8.1 mph - N/A   Clear
7:55 PM 42.3 °F 37.9 °F 36.7 °F 81% 29.70 in 10.0 mi ESE 6.9 mph - N/A   Clear
8:15 PM 41.0 °F 35.8 °F 36.3 °F 83% 29.72 in 10.0 mi ESE 8.1 mph - N/A   Clear
8:35 PM 39.6 °F 35.4 °F 35.6 °F 86% 29.74 in 10.0 mi ESE 5.8 mph - N/A   Clear
8:55 PM 42.3 °F 37.3 °F 36.9 °F 81% 29.74 in 10.0 mi SSE 8.1 mph - N/A   Mostly Cloudy
9:15 PM 42.8 °F 37.5 °F 37.0 °F 80% 29.76 in 10.0 mi South 9.2 mph - N/A   Overcast
9:35 PM 43.0 °F 38.8 °F 37.4 °F 81% 29.76 in 10.0 mi South 6.9 mph - N/A   Overcast
9:55 PM 42.8 °F 38.0 °F 37.6 °F 82% 29.74 in 10.0 mi SSE 8.1 mph - N/A   Overcast
10:15 PM 44.6 °F 39.2 °F 38.8 °F 80% 29.73 in 10.0 mi SSE 10.4 mph 16.1 mph N/A   Mostly Cloudy
10:35 PM 43.5 °F 38.9 °F 38.3 °F 82% 29.72 in 10.0 mi SE 8.1 mph - N/A   Scattered Clouds
10:55 PM 41.7 °F 36.1 °F 37.4 °F 85% 29.72 in 10.0 mi ESE 9.2 mph - N/A   Overcast
11:15 PM 41.0 °F 35.2 °F 36.9 °F 85% 29.70 in 10.0 mi SE 9.2 mph - N/A   Scattered Clouds
11:35 PM 41.0 °F 35.8 °F 36.9 °F 85% 29.70 in 10.0 mi SE 8.1 mph - N/A   Scattered Clouds
11:55 PM 40.1 °F 34.7 °F 36.5 °F 87% 29.70 in 10.0 mi ESE 8.1 mph - N/A   Scattered Clouds